Radiation Dose at Monitoring Post of Fukushima Daini Nuclear Power Station
Date,Time,MP-1(microSv/h),MP-2(microSv/h),MP-3(microSv/h),MP-4(microSv/h),MP-5(microSv/h),MP-6(microSv/h),MP-7(microSv/h),Wind Direction,Wind Velocity(m/s),Rain
2019/05/03,00:00,0.195,0.184,0.297,0.278,0.271,0.149,0.090,south,3.5,No
2019/05/03,00:10,0.195,0.184,0.297,0.277,0.271,0.149,0.091,south-southwest,4.0,No
2019/05/03,00:20,0.194,0.183,0.298,0.277,0.271,0.150,0.092,south,3.4,No
2019/05/03,00:30,0.195,0.183,0.297,0.277,0.271,0.149,0.091,south,2.9,No
2019/05/03,00:40,0.196,0.184,0.296,0.277,0.271,0.150,0.091,south-southeast,2.5,No
2019/05/03,00:50,0.194,0.183,0.298,0.276,0.271,0.149,0.091,south-southeast,3.5,No
2019/05/03,01:00,0.196,0.183,0.297,0.278,0.271,0.150,0.091,south,3.5,No
2019/05/03,01:10,0.195,0.184,0.297,0.278,0.270,0.150,0.092,south-southwest,3.4,No
2019/05/03,01:20,0.195,0.184,0.297,0.277,0.270,0.149,0.091,southwest,2.7,No
2019/05/03,01:30,0.195,0.183,0.298,0.276,0.271,0.149,0.091,south-southwest,1.4,No
2019/05/03,01:40,0.197,0.183,0.297,0.278,0.270,0.149,0.091,south-southeast,1.0,No
2019/05/03,01:50,0.195,0.183,0.298,0.277,0.271,0.150,0.091,west-southwest,1.1,No
2019/05/03,02:00,0.194,0.184,0.298,0.276,0.272,0.148,0.091,southwest,0.7,No
2019/05/03,02:10,0.195,0.185,0.297,0.278,0.271,0.150,0.091,west-northwest,1.0,No
2019/05/03,02:20,0.195,0.184,0.298,0.276,0.271,0.149,0.092,west-northwest,1.5,No
2019/05/03,02:30,0.196,0.185,0.298,0.278,0.272,0.149,0.091,west,3.0,No
2019/05/03,02:40,0.194,0.183,0.296,0.279,0.271,0.149,0.091,west,3.0,No
2019/05/03,02:50,0.195,0.183,0.298,0.278,0.269,0.148,0.091,west-southwest,1.7,No
2019/05/03,03:00,0.195,0.184,0.299,0.277,0.271,0.150,0.092,west,1.1,No
2019/05/03,03:10,0.195,0.182,0.297,0.278,0.271,0.150,0.091,north-northeast,0.6,No
2019/05/03,03:20,0.195,0.184,0.296,0.277,0.271,0.149,0.091,north-northeast,1.1,No
2019/05/03,03:30,0.195,0.184,0.298,0.278,0.272,0.149,0.091,east,0.7,No
2019/05/03,03:40,0.196,0.184,0.297,0.278,0.272,0.149,0.091,south-southeast,1.3,No
2019/05/03,03:50,0.195,0.184,0.297,0.277,0.270,0.148,0.091,southeast,2.1,No
2019/05/03,04:00,0.194,0.183,0.299,0.276,0.271,0.149,0.092,east-southeast,3.1,No
2019/05/03,04:10,0.195,0.183,0.297,0.278,0.271,0.149,0.091,southeast,2.3,No
2019/05/03,04:20,0.196,0.183,0.296,0.277,0.271,0.149,0.092,south-southeast,1.5,No
2019/05/03,04:30,0.194,0.184,0.298,0.278,0.272,0.149,0.091,south,2.3,No
2019/05/03,04:40,0.195,0.185,0.299,0.279,0.271,0.149,0.091,south,3.3,No
2019/05/03,04:50,0.195,0.183,0.297,0.278,0.271,0.150,0.091,south-southeast,2.8,No
2019/05/03,05:00,0.194,0.182,0.296,0.277,0.271,0.150,0.091,south,2.4,No
2019/05/03,05:10,0.195,0.184,0.297,0.278,0.270,0.149,0.091,south,2.4,No
2019/05/03,05:20,0.196,0.183,0.298,0.278,0.270,0.149,0.092,south,1.4,No
2019/05/03,05:30,0.196,0.182,0.297,0.278,0.270,0.149,0.091,south,0.9,No
2019/05/03,05:40,0.194,0.184,0.299,0.278,0.270,0.149,0.091,south,1.1,No
2019/05/03,05:50,0.196,0.183,0.297,0.278,0.272,0.149,0.091,south-southeast,1.5,No
2019/05/03,06:00,0.196,0.183,0.296,0.278,0.270,0.149,0.091,south,2.2,No
2019/05/03,06:10,0.195,0.184,0.297,0.276,0.270,0.149,0.091,south,3.3,No
2019/05/03,06:20,0.196,0.184,0.297,0.277,0.272,0.149,0.091,south-southwest,3.1,No
2019/05/03,06:30,0.195,0.183,0.297,0.278,0.270,0.150,0.091,south-southwest,2.1,No
2019/05/03,06:40,0.195,0.184,0.299,0.277,0.271,0.150,0.091,south-southwest,2.4,No
2019/05/03,06:50,0.196,0.183,0.296,0.279,0.270,0.150,0.091,south-southwest,0.8,No
2019/05/03,07:00,0.196,0.185,0.298,0.278,0.273,0.150,0.092,-,CALM,No
2019/05/03,07:10,0.196,0.183,0.298,0.278,0.272,0.151,0.092,-,CALM,No
2019/05/03,07:20,0.195,0.184,0.297,0.278,0.273,0.149,0.092,south-southwest,0.9,No
2019/05/03,07:30,0.195,0.183,0.296,0.278,0.271,0.149,0.091,east-southeast,1.7,No
2019/05/03,07:40,0.196,0.183,0.297,0.275,0.273,0.148,0.092,south-southeast,1.4,No
2019/05/03,07:50,0.195,0.182,0.295,0.277,0.271,0.149,0.091,southeast,2.6,No
2019/05/03,08:00,0.195,0.183,0.298,0.278,0.272,0.149,0.090,south,1.4,No
2019/05/03,08:10,0.194,0.183,0.296,0.276,0.269,0.150,0.091,west,1.9,No
2019/05/03,08:20,0.194,0.184,0.298,0.277,0.274,0.149,0.091,southwest,4.4,No
2019/05/03,08:30,0.196,0.183,0.295,0.276,0.271,0.150,0.091,west,4.1,No
2019/05/03,08:40,0.193,0.182,0.298,0.275,0.268,0.149,0.091,southwest,4.8,No
2019/05/03,08:50,0.197,0.182,0.297,0.276,0.272,0.150,0.091,west,4.8,No
2019/05/03,09:00,0.195,0.183,0.299,0.278,0.271,0.150,0.091,west,4.2,No
2019/05/03,09:10,0.194,0.183,0.295,0.277,0.269,0.148,0.092,west,7.8,No
2019/05/03,09:20,0.195,0.184,0.298,0.276,0.270,0.149,0.091,west-southwest,4.6,No
2019/05/03,09:30,0.195,0.184,0.295,0.273,0.273,0.150,0.090,west,7.0,No
2019/05/03,09:40,0.194,0.182,0.299,0.273,0.271,0.148,0.091,west-northwest,6.6,No
2019/05/03,09:50,0.196,0.183,0.298,0.277,0.269,0.148,0.090,west-northwest,8.4,No
2019/05/03,10:00,0.194,0.182,0.296,0.279,0.273,0.149,0.092,west-northwest,9.5,No
2019/05/03,10:10,0.194,0.183,0.298,0.278,0.274,0.149,0.091,west,4.9,No
2019/05/03,10:20,0.197,0.186,0.295,0.275,0.270,0.149,0.090,west-northwest,8.1,No
2019/05/03,10:30,0.194,0.183,0.299,0.275,0.270,0.149,0.091,west,8.7,No
2019/05/03,10:40,0.194,0.183,0.298,0.277,0.272,0.150,0.092,west-northwest,8.7,No
2019/05/03,10:50,0.196,0.184,0.295,0.278,0.271,0.149,0.092,west-northwest,10.7,No
2019/05/03,11:00,0.196,0.185,0.295,0.279,0.270,0.148,0.091,west,8.9,No
2019/05/03,11:10,0.195,0.183,0.298,0.277,0.270,0.149,0.091,west,7.5,No
2019/05/03,11:20,0.195,0.182,0.297,0.276,0.271,0.149,0.091,west,10.4,No
2019/05/03,11:30,0.197,0.182,0.297,0.275,0.273,0.150,0.090,west,10.0,No
2019/05/03,11:40,0.195,0.184,0.295,0.275,0.272,0.150,0.091,west,9.5,No
2019/05/03,11:50,0.193,0.184,0.295,0.276,0.269,0.149,0.091,west,12.6,No
2019/05/03,12:00,0.194,0.184,0.293,0.276,0.270,0.149,0.092,west-northwest,7.9,No
2019/05/03,12:10,0.197,0.182,0.297,0.277,0.269,0.150,0.090,north,5.0,No
2019/05/03,12:20,0.195,0.183,0.300,0.277,0.269,0.149,0.090,north,3.5,No
2019/05/03,12:30,0.195,0.185,0.298,0.276,0.268,0.150,0.090,northeast,1.3,No
2019/05/03,12:40,0.195,0.182,0.295,0.276,0.271,0.149,0.091,southeast,4.0,No
2019/05/03,12:50,0.196,0.184,0.296,0.275,0.274,0.150,0.091,southeast,3.7,No
2019/05/03,13:00,0.195,0.184,0.294,0.279,0.273,0.149,0.091,southeast,5.0,No
2019/05/03,13:10,0.194,0.183,0.298,0.280,0.271,0.150,0.091,southeast,4.6,No
2019/05/03,13:20,0.197,0.185,0.300,0.279,0.271,0.150,0.090,southeast,4.9,No
2019/05/03,13:30,0.195,0.184,0.297,0.276,0.275,0.149,0.090,southeast,5.3,No
2019/05/03,13:40,0.194,0.185,0.296,0.279,0.271,0.150,0.091,south-southeast,5.6,No
2019/05/03,13:50,0.196,0.184,0.299,0.280,0.269,0.150,0.091,southeast,4.2,No
2019/05/03,14:00,0.196,0.185,0.299,0.276,0.272,0.149,0.091,southeast,2.3,No
2019/05/03,14:10,0.195,0.185,0.297,0.277,0.274,0.149,0.092,south-southeast,4.1,No
2019/05/03,14:20,0.197,0.185,0.298,0.280,0.271,0.150,0.091,southeast,3.7,No
2019/05/03,14:30,0.196,0.184,0.299,0.278,0.270,0.149,0.090,southeast,4.5,No
2019/05/03,14:40,0.196,0.185,0.296,0.278,0.275,0.149,0.091,southeast,3.8,No
2019/05/03,14:50,0.197,0.183,0.295,0.280,0.273,0.150,0.091,south-southeast,3.0,No
2019/05/03,15:00,0.195,0.184,0.300,0.278,0.271,0.149,0.092,southeast,5.2,No
2019/05/03,15:10,0.196,0.183,0.299,0.280,0.270,0.149,0.091,south-southeast,3.8,No
2019/05/03,15:20,0.196,0.185,0.296,0.279,0.273,0.150,0.091,south-southeast,2.6,No
2019/05/03,15:30,0.194,0.185,0.300,0.281,0.271,0.149,0.092,south-southeast,4.1,No
2019/05/03,15:40,0.195,0.183,0.296,0.280,0.269,0.148,0.091,southeast,2.8,No
2019/05/03,15:50,0.196,0.185,0.300,0.278,0.271,0.150,0.092,south-southeast,3.5,No
2019/05/03,16:00,0.195,0.184,0.299,0.280,0.273,0.150,0.091,south-southeast,5.0,No
2019/05/03,16:10,0.196,0.186,0.297,0.279,0.272,0.149,0.091,south-southeast,5.3,No
2019/05/03,16:20,0.196,0.185,0.300,0.279,0.267,0.149,0.091,south-southeast,5.7,No
2019/05/03,16:30,0.194,0.185,0.299,0.279,0.274,0.150,0.092,south-southeast,5.6,No
2019/05/03,16:40,0.197,0.184,0.301,0.280,0.273,0.149,0.091,south-southeast,5.2,No
2019/05/03,16:50,0.195,0.185,0.299,0.278,0.270,0.150,0.091,south-southeast,5.7,No
2019/05/03,17:00,0.198,0.185,0.300,0.281,0.275,0.149,0.091,south-southeast,6.2,No
2019/05/03,17:10,0.195,0.184,0.299,0.279,0.274,0.149,0.092,south-southeast,7.1,No
2019/05/03,17:20,0.197,0.185,0.300,0.279,0.271,0.150,0.090,south-southeast,7.4,No
2019/05/03,17:30,0.196,0.184,0.298,0.279,0.274,0.151,0.091,south-southeast,4.1,No
2019/05/03,17:40,0.196,0.185,0.301,0.280,0.272,0.149,0.092,south,6.5,No
2019/05/03,17:50,0.196,0.184,0.298,0.280,0.274,0.149,0.090,south,7.0,No
2019/05/03,18:00,0.196,0.185,0.300,0.279,0.272,0.149,0.092,south,7.0,No
2019/05/03,18:10,0.197,0.185,0.298,0.279,0.272,0.149,0.091,south,6.2,No
2019/05/03,18:20,0.195,0.185,0.300,0.279,0.273,0.149,0.092,south,5.1,No
2019/05/03,18:30,0.195,0.184,0.297,0.280,0.273,0.150,0.091,south,4.6,No
2019/05/03,18:40,0.196,0.185,0.299,0.279,0.273,0.149,0.091,south,4.8,No
2019/05/03,18:50,0.196,0.186,0.299,0.280,0.272,0.150,0.091,south,4.9,No
2019/05/03,19:00,0.197,0.184,0.300,0.279,0.272,0.150,0.091,-,CALM,No
2019/05/03,19:10,0.196,0.184,0.300,0.280,0.273,0.149,0.091,east-northeast,0.6,No
2019/05/03,19:20,0.197,0.185,0.298,0.279,0.272,0.150,0.091,south-southwest,1.0,No
2019/05/03,19:30,0.196,0.185,0.300,0.279,0.274,0.149,0.092,south,0.7,No
2019/05/03,19:40,0.196,0.185,0.298,0.278,0.271,0.150,0.091,south-southwest,1.7,No
2019/05/03,19:50,0.196,0.185,0.300,0.280,0.275,0.149,0.091,southwest,1.8,No
2019/05/03,20:00,0.195,0.185,0.299,0.280,0.272,0.149,0.092,west,1.4,No
2019/05/03,20:10,0.197,0.185,0.299,0.280,0.273,0.150,0.092,west-northwest,1.9,No
2019/05/03,20:20,0.194,0.185,0.300,0.281,0.272,0.150,0.092,west-southwest,1.3,No
2019/05/03,20:30,0.196,0.185,0.300,0.279,0.273,0.150,0.092,northwest,1.5,No
2019/05/03,20:40,0.196,0.185,0.300,0.280,0.273,0.149,0.091,west-southwest,1.6,No
2019/05/03,20:50,0.197,0.186,0.299,0.279,0.272,0.150,0.092,west-northwest,1.0,No
2019/05/03,21:00,0.197,0.185,0.300,0.280,0.273,0.151,0.092,west-southwest,2.4,No
2019/05/03,21:10,0.196,0.185,0.300,0.281,0.272,0.150,0.092,west,3.2,No
2019/05/03,21:20,0.198,0.186,0.298,0.279,0.272,0.150,0.091,west-northwest,2.6,No
2019/05/03,21:30,0.196,0.185,0.301,0.281,0.273,0.150,0.092,west-northwest,2.7,No
2019/05/03,21:40,0.197,0.183,0.300,0.281,0.272,0.150,0.092,west-northwest,3.3,No
2019/05/03,21:50,0.196,0.186,0.300,0.280,0.274,0.150,0.092,west-northwest,2.8,No
2019/05/03,22:00,0.198,0.185,0.301,0.281,0.271,0.151,0.092,west-northwest,3.2,No
2019/05/03,22:10,0.197,0.185,0.299,0.279,0.273,0.151,0.092,north-northwest,2.8,No
2019/05/03,22:20,0.196,0.186,0.300,0.281,0.272,0.149,0.092,south,2.2,No
2019/05/03,22:30,0.198,0.184,0.300,0.281,0.273,0.151,0.091,north-northwest,1.5,No
2019/05/03,22:40,0.197,0.185,0.299,0.280,0.273,0.151,0.092,northwest,3.0,No
2019/05/03,22:50,0.197,0.186,0.301,0.281,0.272,0.150,0.092,northwest,1.9,No
2019/05/03,23:00,0.198,0.185,0.301,0.279,0.274,0.151,0.092,-,CALM,No
2019/05/03,23:10,0.196,0.185,0.300,0.279,0.273,0.151,0.092,west-northwest,1.5,No
2019/05/03,23:20,0.197,0.185,0.301,0.280,0.273,0.150,0.093,northwest,2.9,No
2019/05/03,23:30,0.197,0.185,0.299,0.279,0.274,0.151,0.093,north-northwest,3.2,No
2019/05/03,23:40,0.196,0.186,0.301,0.280,0.272,0.151,0.092,north-northwest,2.2,No
2019/05/03,23:50,0.197,0.185,0.300,0.280,0.274,0.151,0.092,north,2.8,No
